Location: Caltech
(34.1382°N, 118.1253°W)
Time: 22:33:50
(UTC-08:00)

Iridium 18 - Visible Passes

Search period start: 20 November 2017 00:00
Search period end: 30 November 2017 00:00
Orbit: 762 x 764 km, 86.4° (Epoch: 20 November)

Date Brightness Start Highest point End Pass type
(mag) Time Alt. Az. Time Alt. Az. Time Alt. Az.
20 Nov 8.3 03:31:00 10° NE 03:33:45 14° ENE 03:36:30 10° ESE visible
20 Nov 5.6 05:09:28 10° NNW 05:14:26 50° W 05:19:22 10° SSW visible
20 Nov 8.0 18:00:59 10° SW 18:04:58 23° W 18:08:59 10° NNW visible
21 Nov 5.6 04:31:32 10° N 04:36:41 74° E 04:41:48 10° S visible
21 Nov 6.6 17:22:02 10° SSW 17:26:59 48° W 17:31:58 10° N visible
22 Nov 7.0 03:54:08 10° NNE 03:58:46 33° E 04:03:23 10° SSE visible
22 Nov 6.6 05:35:04 10° NW 05:38:54 21° W 05:42:43 10° SW visible
23 Nov 8.1 03:17:38 10° NE 03:20:42 16° ENE 03:23:46 10° ESE visible
23 Nov 5.7 04:57:55 19° NNW 05:01:19 46° W 05:06:12 10° SSW visible
23 Nov 8.1 17:48:06 10° SW 17:51:54 21° W 17:55:44 10° NNW visible
24 Nov 5.5 04:22:14 50° N 04:23:35 81° E 04:28:43 10° S visible
24 Nov 6.8 17:09:01 10° SSW 17:13:53 44° W 17:18:49 10° NNW visible
25 Nov 6.9 03:46:11 36° E 03:46:11 36° E 03:50:24 10° SSE visible
25 Nov 6.8 05:26:27 19° W 05:26:27 19° W 05:29:23 10° SW visible
26 Nov 8.2 03:09:54 13° ESE 03:09:54 13° ESE 03:10:59 10° ESE visible
26 Nov 6.5 04:50:10 29° SW 04:50:10 29° SW 04:53:00 10° SSW visible
26 Nov 8.2 17:35:15 10° SW 17:38:50 19° W 17:42:28 10° NW visible
27 Nov 7.1 04:13:44 23° S 04:13:44 23° S 04:15:37 10° S visible
28 Nov 8.1 03:37:10 11° SSE 03:37:10 11° SSE 03:37:25 10° SSE visible
29 Nov 8.2 17:22:25 10° WSW 17:25:47 17° W 17:29:10 10° NW visible
